User: anonymous   Login
Location: Leuk
(46.3174°N, 7.6341°E)
Time: 16:02:35
(UTC+00:00)
Language:

Cosmos 1151 Rocket - Orbit

View from above orbital plane
View from above orbital plane
View from above satellite
View from above satellite

Ground track
Ground track

The orbit data is extracted from the following two-line orbital elements,

1 11672U 80005B   21128.19482082  .00000088  00000-0  69238-5 0  9997
2 11672  82.5161 177.9677 0015133 280.1956  79.7554 14.88044499234704
Epoch (UTC): 08 May 2021 04:40:32
Eccentricity: 0.0015133
inclination: 82.5161°
perigee height: 593 km
apogee height: 614 km
right ascension of ascending node: 177.9677°
argument of perigee: 280.1956°
revolutions per day: 14.88044499
mean anomaly at epoch: 79.7554°
orbit number at epoch: 23470

The dashed part of the orbit path shows where the satellite is in the earth's shadow,  

DLR